MST,Max TemperatureF,Mean TemperatureF,Min TemperatureF,Max Dew PointF,MeanDew PointF,Min DewpointF,Max Humidity, Mean Humidity, Min Humidity, Max Sea Level PressureIn, Mean Sea Level PressureIn, Min Sea Level PressureIn, Max VisibilityMiles, Mean VisibilityMiles, Min VisibilityMiles, Max Wind SpeedMPH, Mean Wind SpeedMPH, Max Gust SpeedMPH,PrecipitationIn, CloudCover, Events, WindDirDegrees
2011-11-1,37,32,27,34,30,24,100,85,69,30.43,30.15,30.01,10,8,1,18,8,22,0.05,8,Rain-Snow,342
2011-11-2,40,29,17,23,19,14,88,61,34,30.55,30.44,30.26,10,10,10,25,10,36,0.00,0,,230
2011-11-3,51,41,31,22,17,11,49,39,28,30.23,29.94,29.72,10,10,10,35,22,46,0.00,0,,186
2011-11-4,63,51,38,26,21,18,54,37,19,29.67,29.59,29.46,10,10,10,39,21,54,0.00,0,,204
2011-11-5,44,35,25,26,23,21,85,67,49,29.68,29.51,29.37,10,8,2,24,14,31,0.01,6,Snow,306
2011-11-6,37,25,12,22,17,8,92,66,40,30.13,29.87,29.61,10,10,10,20,7,26,0.00,1,,281
2011-11-7,44,29,14,34,15,10,84,59,34,30.21,30.13,30.00,10,10,10,16,6,23,0.00,0,,169
2011-11-8,43,27,10,21,13,8,88,59,29,30.39,30.25,30.04,10,10,10,18,8,25,0.00,0,,275
2011-11-9,43,29,14,20,15,11,80,57,33,30.52,30.43,30.34,10,10,10,21,9,26,0.00,2,,275
2011-11-10,60,39,18,16,11,9,77,45,13,30.33,30.05,29.84,10,10,10,20,10,25,0.00,0,,223
2011-11-11,61,50,39,11,8,1,30,20,9,29.85,29.65,29.37,10,10,10,25,14,32,0.00,0,,220
2011-11-12,56,41,25,33,23,9,96,58,20,29.41,29.34,29.26,10,7,0,30,16,39,0.14,5,Fog-Rain-Snow,287
2011-11-13,46,36,26,28,22,18,81,57,33,29.58,29.45,29.38,10,10,3,23,11,31,0.01,4,Snow,249
2011-11-14,48,35,21,25,20,10,88,56,23,29.68,29.55,29.43,10,10,10,29,8,39,T,4,,276
2011-11-15,29,24,19,27,15,6,92,67,42,30.16,29.88,29.61,10,8,0,24,11,31,0.05,8,Fog-Snow,302
2011-11-16,29,22,15,16,9,1,84,59,33,30.35,30.25,30.15,10,9,2,21,11,25,0.01,3,Snow,260
2011-11-17,50,34,17,24,17,3,69,52,34,30.13,29.76,29.59,10,10,10,31,16,41,0.00,1,,212
2011-11-18,30,23,15,27,22,10,92,85,78,29.78,29.66,29.60,10,5,1,17,9,26,0.16,8,Snow,17
2011-11-19,15,4,-8,12,4,-12,92,83,73,30.19,29.84,29.64,10,5,0,25,10,29,0.13,6,Snow,343
2011-11-20,31,13,-6,19,7,-8,88,67,46,30.24,30.10,29.91,10,10,10,26,6,31,0.00,0,,153
2011-11-21,43,25,6,29,21,4,92,74,55,30.13,30.02,29.90,10,10,10,20,8,26,0.00,0,,203
2011-11-22,46,32,18,26,22,14,84,63,41,30.09,30.01,29.90,10,10,10,25,13,33,0.00,0,,211
2011-11-23,51,45,39,28,25,23,59,48,36,30.03,29.90,29.74,10,10,10,37,24,47,0.00,0,,221
2011-11-24,58,51,44,27,24,21,42,35,28,29.74,29.68,29.59,10,10,10,37,23,47,0.00,0,,219
2011-11-25,55,40,25,31,24,17,85,56,26,30.23,29.81,29.61,10,8,0,35,13,44,0.21,5,Snow-Thunderstorm,299
2011-11-26,32,24,15,21,16,11,80,67,54,30.61,30.53,30.28,10,10,10,28,12,35,0.00,1,,274
2011-11-27,50,39,27,27,23,17,69,53,36,30.44,30.19,29.96,10,10,10,25,15,32,0.00,0,,223
2011-11-28,48,37,25,28,24,22,85,62,38,30.40,30.21,29.95,10,10,10,20,7,26,0.00,1,,260
2011-11-29,53,41,29,27,25,20,78,53,28,30.30,30.16,29.90,10,10,10,20,5,22,0.00,1,,0
2011-11-30,45,37,28,34,30,26,92,73,53,30.31,30.02,29.85,10,6,0,30,10,33,0.21,8,Fog-Rain-Snow,334